Regional Weather Roundup
Issued by NWS

Home | Current Version | Previous Version | Text Only | Print | Product List | Glossary Off
Versions: 1 2 3 4 5 6 7 8 9 10 11 12 13 14 15 16 17 18 19 20 21 22 23 24 25 26 27 28 29 30 31 32 33 34 35 36 37 38 39 40 41 42 43 44 45 46 47 48 49 50

000
ASUS43 KOAX 071310
RWRNE

WEATHER ROUNDUP FOR NEBRASKA
NATIONAL WEATHER SERVICE OMAHA NE
700 AM CST SUN FEB 07 2016

NOTES: SATELLITE DATA IS BEING USED TO AUGMENT CLOUD COVER ABOVE
       12000 FEET.
       "FAIR" INDICATES FEW OR NO CLOUDS BELOW 12,000 FEET WITH NO
       SIGNIFICANT WEATHER AND/OR OBSTRUCTIONS TO VISIBILITY.

  * THESE STATIONS DO NOT REPORT WEATHER SUCH AS RAIN...SNOW OR FOG.

NEZ001>004-019>022-054>056-071400-
NEBRASKA PANHANDLE

CITY           SKY/WX    TMP DP  RH WIND       PRES   REMARKS
SCOTTSBLUFF    LGT SNOW  31  26  82 NW13G28   30.22R WCI  21
ALLIANCE       CLOUDY    31  23  72 NW21G29   30.15R WCI  18
CHADRON        CLOUDY    34  22  61 W15       30.17R WCI  24
KIMBALL        PTCLDY    27  19  71 NW16      30.19R WCI  15
SIDNEY         MOCLDY    24  17  74 NW10      30.18R WCI  14
$$

NEZ057>060-069>072-079>082-071400-
SOUTHWEST NEBRASKA

CITY           SKY/WX    TMP DP  RH WIND       PRES   REMARKS
NORTH PLATTE   CLOUDY    32  22  66 NW17      30.12R WCI  21
IMPERIAL       CLOUDY    32  17  54 NW17      30.16R WCI  21
LEXINGTON      PTCLDY    30  24  77 W12       30.10R WCI  21
MCCOOK         MOCLDY    30  21  69 W12       30.14R WCI  20
OGALLALA       CLOUDY    32  20  61 NW12      30.16R WCI  23
$$

NEZ005>010-023>029-035>040-094-071400-
NORTH CENTRAL NEBRASKA

CITY           SKY/WX    TMP DP  RH WIND       PRES   REMARKS
VALENTINE      PTCLDY    36  22  56 W14G22    30.05R WCI  27
AINSWORTH      CLOUDY    37  21  52 NW22G31   30.04R WCI  27
BROKEN BOW     MOCLDY    37  23  56 NW17      30.06R WCI  27
O`NEILL        PTCLDY    37  25  61 W15       29.99F WCI  28
ORD            MOCLDY    36  23  59 NW13      30.04R WCI  27
THEDFORD       CLOUDY    36  24  63 NW12      30.10R WCI  28
$$

NEZ041-046>049-061>064-073>077-083>087-071400-
SOUTH CENTRAL NEBRASKA

CITY           SKY/WX    TMP DP  RH WIND       PRES   REMARKS
GRAND ISLAND   CLOUDY    36  22  56 NW15      30.06R WCI  27
AURORA         PTCLDY    36  24  61 NW23      30.05R WCI  25
HASTINGS       CLOUDY    37  23  56 NW18      30.06R WCI  27
HEBRON         CLOUDY    36  27  70 W6        30.06R WCI  31
HOLDREGE       CLOUDY    32  24  73 W13       30.09R WCI  23
YORK           CLOUDY    36  27  69 NW22      30.03R WCI  24
$$

NEZ011>018-030>034-042>045-071400-
NORTHEAST NEBRASKA

CITY           SKY/WX    TMP DP  RH WIND       PRES   REMARKS
NORFOLK        CLEAR     35  23  61 W15       29.98R WCI  25
ALBION         PTCLDY    33  23  66 NW10      30.01S WCI  25
BLAIR          CLOUDY    37  25  63 NW13      29.94R WCI  28
COLUMBUS *     CLOUDY    36  19  51 W18       30.00R WCI  25
FREMONT        CLOUDY    36  25  64 NW22G29   29.96S WCI  25
TEKAMAH        CLEAR     38  25  59 NW25G37   29.92S WCI  27
WAYNE          CLEAR     34  24  67 W15       29.95S WCI  24
$$

NEZ050>053-065>068-078-088>093-071400-
SOUTHEAST NEBRASKA

CITY           SKY/WX    TMP DP  RH WIND       PRES   REMARKS
LINCOLN        PTCLDY    35  24  64 W6        30.01R WCI  30
OMAHA EPPLEY   CLOUDY    39  26  59 NW16      29.93S WCI  30
BEATRICE       CLOUDY    34  28  79 W9        30.03R WCI  26
FALLS CITY     PTCLDY    36  27  69 W13       30.00R WCI  27
NEBRASKA CITY  CLOUDY    35  27  75 W8        29.99R WCI  28
PLATTSMOUTH    CLOUDY    36  26  65 W12       29.95S WCI  28
$$

NEZ044-045-051>053-067-071400-
OMAHA AREA

CITY           SKY/WX    TMP DP  RH WIND       PRES   REMARKS
OMAHA EPPLEY   CLOUDY    39  26  59 NW16      29.93S WCI  30
BLAIR          CLOUDY    37  25  63 NW13      29.94R WCI  28
FREMONT        CLOUDY    36  25  64 NW22G29   29.96S WCI  25
MILLARD        CLOUDY    37  26  66 NW10      29.96R WCI  29
OFFUTT AFB     CLOUDY    34  26  70 NW10      29.94S WCI  26
PLATTSMOUTH    CLOUDY    36  26  65 W12       29.95S WCI  28
WAHOO          FAIR      37  26  63 NW14      29.97R WCI  28
$$



USA.gov is the U.S. government's official web portal to all federal, state and local government web resources and services.